Location: Darmstadt
(49.8706°N, 8.6494°E)
Time: 07:30:30
(UTC+01:00)

SeaSat 1 - Pass Details

Date: 31 October 2020
Orbit: 744 x 747 km, 108.0° (Epoch: 03 December)

Event Time Altitude Azimuth Distance (km) Brightness Sun altitude
Exits shadow 17:34:54 - 70° (ENE) 2,553 4.5 -5.6°
Reaches altitude 10° 17:36:10 10° 59° (ENE) 2,271 4.3 -5.8°
Maximum altitude 17:38:26 13° 31° (NNE) 2,051 4.3 -6.2°
Drops below altitude 10° 17:40:43 10° 4° (N) 2,276 4.8 -6.5°
Sets 17:44:09 0° 338° (NNW) 3,204 5.8 -7.0°
